OBJECT M

Satellite information

Favourite Embed

Satellite Type and Status

UNKNOWNIN ORBIT

Key statistics

Satellite OBJECT M at a glance.

Uptime

2978

Days in orbit

Revolutions

≈ 15.1

Per day

Orbit

SSO

Sun Synchronous Orbit

Inclination

97.4

Latest

Satellite identification and parameters

Extended collection of information and parameters for OBJECT M.

Object identification

Identified? True

Debris? False

Object name: OBJECT M

International designator: 2017-042M

Object number (NORAD): 42836

Object ID (CCSDS): 42836

Country: TO BE DETERMINED/UNKNOWN (TBD)

Current information (Y/N): Y

RCS size: MEDIUM

Orbital parameters

Period: 95.657 minutes

Inclination: 97.4 deg

SMA: 6928.487 km

Apoapsis: 553.265 km

Periapsis: 547.439 km

RAAN: 58.2164 deg

Eccentricy: 0.00042044

Argument of periapsis: 5.2448 deg

Mean anomaly: 354.8823 deg

Mean motion: 15.05376701 rev/day

Mean motion (dot): 0.00005246 rev/day2

B* drag term: 0.00036995356 1/REarth

Two-line elements (TLE)

Creation date: Sept. 8, 2025, 3:16 a.m.

Reference frame: TEME

Reference center: EARTH

Epoch: Sept. 7, 2025, 9:51 p.m. UTC

TLE line 0: 0 OBJECT M

TLE line 1: 1 42836U 17042M 25250.91106736 .00005246 00000-0 36995-3 0 9996

TLE line 2: 2 42836 97.4000 58.2164 0004204 5.2448 354.8823 15.05376701444497

Live tracking on map

Real-time ground track for satellite OBJECT M.

In-orbit conjunctions

There are no conjunctions computed for OBJECT M, at the moment. Check back to stay up to date, as we update our databases every day.

Go to all conjunctions

Associated space launch

Kanopus-V-IK is a small Russian remote sensing satellite for monitoring wildfires. Weighing about 473 kg, it is intended for 5 years of operation in a 510 km sun-synchronous orbit.

OBJECT M was lifted into orbit during the mission ‘Soyuz-2.1a/Fregat | Kanopus-V-IK’, on board a Soyuz 2.1a/Fregat-M space rocket.

The launch took place on July 14, 2017, 6:36 a.m. from 31/6.

For more information about the launch, click the button.

Launch to space Soyuz-2.1a/Fregat | Kanopus-V-IK
Soyuz-2.1a/Fregat | Kanopus-V-IK

Agency: N/A

Status: Launch was a Partial Failure

Launch date: July 14, 2017, 6:36 a.m. UTC

Rocket: Soyuz 2.1a/Fregat-M

Launch pad: 31/6

Location: Baikonur Cosmodrome, Republic of Kazakhstan

...

Latest news about this satellite

There are no fresh news available about this satellite. Check back as we update our databases every day.


Newsletter sign-up

Weekly statistics, charts and insights to help you stay on top of the space industry.